Location: Melbourne
(37.8170°S, 144.9670°E)
Time: 23:36:14
(UTC+10:00)

ERBS - Visible Passes

Search period start: 20 June 2018 00:00
Search period end: 30 June 2018 00:00
Orbit: 417 x 439 km, 57.0° (Epoch: 19 June)

Date Brightness Start Highest point End Pass type
(mag) Time Alt. Az. Time Alt. Az. Time Alt. Az.
20 Jun 4.7 18:33:17 10° NNE 18:33:57 12° NE 18:33:57 12° NE visible
21 Jun 4.3 19:23:31 10° NW 19:25:11 26° NW 19:25:11 26° NW visible
22 Jun 2.6 18:39:33 10° NNW 18:42:54 48° NE 18:43:09 47° ENE visible
23 Jun 3.6 17:55:55 10° N 17:58:51 26° ENE 18:01:02 15° ESE visible
23 Jun 4.8 19:32:19 10° W 19:34:13 22° WSW 19:34:13 22° WSW visible
24 Jun 3.3 18:47:42 10° WNW 18:51:03 43° SW 18:52:01 34° S visible
25 Jun 2.4 18:03:23 10° NW 18:06:51 79° SW 18:09:43 15° SE visible
25 Jun 5.6 19:42:51 10° SW 19:42:54 10° SW 19:42:54 10° SW visible
26 Jun 4.8 18:57:14 10° WSW 18:59:31 16° SW 19:00:32 15° SSW visible
27 Jun 4.3 18:12:14 10° W 18:15:09 24° SW 18:18:06 10° SSE visible
29 Jun 5.1 18:23:01 10° SW 18:23:45 10° SSW 18:24:28 10° SSW visible
